Weather History for KFKA - November, 2013

Change the Weather History Date:

Friday, November 8, 2013

  Actual Average (KRST) Record (KRST)
Temperature  
Mean Temperature 34 °F 38 °F  
Max Temperature 44 °F 46 °F 75 °F (1999)
Min Temperature 24 °F 30 °F 1 °F (1991)
Degree Days  
Heating Degree Days 31 27  
Month to date heating degree days 200  
Since 1 July heating degree days 936  
Cooling Degree Days 0 0  
Month to date cooling degree days 0  
Year to date cooling degree days 585  
Moisture  
Dew Point 28 °F    
Average Humidity 74    
Maximum Humidity 96    
Minimum Humidity 47    
Precipitation  
Precipitation 0.00 in 0.07 in 1.85 in (1916)
Month to date precipitation 0.53  
Year to date precipitation 30.41  
Snow  
Snow 0.00 in 0.20 in 6.20 in (1943)
Month to date snowfall 0.9  
Since 1 July snowfall 1.7  
Snow Depth -    
Sea Level Pressure  
Sea Level Pressure 29.99 in    
Wind  
Wind Speed 9 mph (South)    
Max Wind Speed 28 mph    
Max Gust Speed 36 mph    
Visibility 10 miles    
Events      
T = Trace of Precipitation, MM = Missing Value Source: NWS Daily Summary

Daily Weather History Graph

Daily Weather History Graph

Search for Another Location

Airport or City:

Trip Planner

Search our weather history database for the weather conditions in past years. The results will help you decide how hot, cold, wet, or windy it might be!

Date:

Astronomy

Nov. 08, 2013 Rise Set
Actual Time 6:54 AM CST 4:50 PM CST
Civil Twilight 6:23 AM CST 5:20 PM CST
Nautical Twilight 5:49 AM CST 5:55 PM CST
Astronomical Twilight 5:15 AM CST 6:28 PM CST
Moon 11:50 AM CST (11/8) 10:12 PM CST (11/8)
Length of Visible Light 10h 57m
Length of Day
9h 56m
Waxing Crescent, 33% of the Moon is Illuminated
Nov 8
Waxing Crescent
Nov 9
First Quarter
Nov 17
Full
Nov 25
Last Quarter
Dec 2
New

Hourly Weather History & Observations

Time (CST) Temp. Windchill Dew Point Humidity Pressure Visibility Wind Dir Wind Speed Gust Speed Precip Events Conditions
12:09 AM 30.0 °F 26.5 °F 26.2 °F 86% 30.21 in 10.0 mi SW 3.5 mph - N/A   Clear
12:29 AM 30.0 °F 26.5 °F 26.1 °F 85% 30.21 in 10.0 mi SW 3.5 mph - N/A   Clear
12:49 AM 28.2 °F 21.0 °F 25.5 °F 90% 30.21 in 10.0 mi SSW 6.9 mph - N/A   Clear
1:09 AM 27.9 °F 22.6 °F 25.3 °F 90% 30.21 in 10.0 mi SW 4.6 mph - N/A   Clear
1:29 AM 28.2 °F 23.1 °F 25.7 °F 90% 30.20 in 10.0 mi WSW 4.6 mph - N/A   Clear
1:49 AM 27.7 °F 22.4 °F 25.0 °F 90% 30.20 in 10.0 mi SSW 4.6 mph - N/A   Clear
2:09 AM 27.1 °F 21.8 °F 25.2 °F 92% 30.21 in 10.0 mi SW 4.6 mph - N/A   Clear
2:19 AM 27.3 °F 23.4 °F 25.2 °F 92% 30.21 in 10.0 mi SSW 3.5 mph - N/A   Clear
2:48 AM 27.3 °F 20.9 °F 25.2 °F 92% 30.21 in 10.0 mi SW 5.8 mph - N/A   Clear
3:09 AM 26.8 °F 21.4 °F 24.8 °F 92% 30.21 in 10.0 mi SW 4.6 mph - N/A   Clear
3:28 AM 27.1 °F 20.7 °F 24.8 °F 91% 30.20 in 10.0 mi SW 5.8 mph - N/A   Clear
3:49 AM 27.0 °F 20.5 °F 24.6 °F 91% 30.20 in 10.0 mi SW 5.8 mph - N/A   Clear
4:09 AM 25.9 °F 21.7 °F 23.9 °F 92% 30.20 in 10.0 mi SSW 3.5 mph - N/A   Clear
4:29 AM 25.7 °F 19.0 °F 23.5 °F 92% 30.20 in 10.0 mi SSW 5.8 mph - N/A   Clear
4:48 AM 25.7 °F 20.1 °F 23.7 °F 92% 30.19 in 10.0 mi SSW 4.6 mph - N/A   Clear
5:04 AM 25.5 °F 19.9 °F 23.7 °F 93% 30.19 in 7.0 mi South 4.6 mph - N/A   Clear
5:28 AM 25.0 °F 19.3 °F 23.9 °F 96% 30.19 in 7.0 mi South 4.6 mph - N/A   Clear
5:48 AM 25.2 °F 18.3 °F 23.9 °F 95% 30.19 in 7.0 mi SSW 5.8 mph - N/A   Clear
5:59 AM 24.8 °F 16.9 °F 23.5 °F 95% 30.19 in 7.0 mi SSW 6.9 mph - N/A   Clear
6:28 AM 24.6 °F 16.7 °F 23.2 °F 94% 30.19 in 7.0 mi South 6.9 mph - N/A   Clear
6:49 AM 24.4 °F 17.5 °F 23.2 °F 95% 30.19 in 7.0 mi South 5.8 mph - N/A   Clear
7:08 AM 25.2 °F 17.3 °F 23.7 °F 94% 30.19 in 7.0 mi South 6.9 mph - N/A   Clear
7:29 AM 26.6 °F 19.1 °F 24.6 °F 92% 30.18 in 7.0 mi SSE 6.9 mph - N/A   Clear
7:49 AM 28.6 °F 20.7 °F 25.7 °F 89% 30.17 in 10.0 mi SSE 8.1 mph - N/A   Clear
8:09 AM 28.4 °F 21.2 °F 25.3 °F 88% 30.17 in 10.0 mi SSE 6.9 mph - N/A   Clear
8:29 AM 29.1 °F 21.3 °F 26.4 °F 90% 30.16 in 10.0 mi SSE 8.1 mph - N/A   Clear
8:49 AM 30.2 °F 24.3 °F 26.8 °F 87% 30.15 in 10.0 mi SSE 5.8 mph - N/A   Scattered Clouds
9:09 AM 31.5 °F 25.8 °F 27.5 °F 85% 30.15 in 10.0 mi SSE 5.8 mph - N/A   Scattered Clouds
9:29 AM 32.0 °F 27.5 °F 28.4 °F 87% 30.14 in 10.0 mi SSE 4.6 mph - N/A   Mostly Cloudy
9:49 AM 33.1 °F 26.9 °F 28.6 °F 84% 30.14 in 10.0 mi SSE 6.9 mph - N/A   Overcast
10:09 AM 34.2 °F 26.2 °F 27.7 °F 77% 30.13 in 10.0 mi SSE 10.4 mph - N/A   Overcast
10:29 AM 35.2 °F 26.6 °F 27.9 °F 74% 30.11 in 10.0 mi SSE 12.7 mph 17.3 mph N/A   Overcast
10:48 AM 36.1 °F 29.3 °F 28.0 °F 72% 30.10 in 10.0 mi SSE 9.2 mph - N/A   Overcast
11:08 AM 36.7 °F 28.9 °F 27.7 °F 70% 30.09 in 10.0 mi SSE 11.5 mph 17.3 mph N/A   Overcast
11:29 AM 37.4 °F 30.8 °F 28.4 °F 70% 30.06 in 10.0 mi SE 9.2 mph 16.1 mph N/A   Overcast
11:49 AM 38.5 °F 31.1 °F 28.2 °F 67% 30.04 in 10.0 mi SSE 11.5 mph - N/A   Overcast
12:08 PM 40.1 °F 31.3 °F 28.2 °F 63% 30.03 in 10.0 mi SSE 17.3 mph 21.9 mph N/A   Overcast
12:29 PM 41.2 °F 32.1 °F 26.8 °F 57% 29.99 in 10.0 mi SSE 19.6 mph 23.0 mph N/A   Overcast
12:49 PM 41.5 °F 33.5 °F 27.3 °F 57% 29.99 in 10.0 mi SSE 16.1 mph 28.8 mph N/A   Overcast
1:09 PM 42.3 °F 34.8 °F 27.7 °F 56% 29.97 in 10.0 mi SSE 15.0 mph 23.0 mph N/A   Scattered Clouds
1:29 PM 44.2 °F 35.4 °F 26.1 °F 49% 29.93 in 10.0 mi SSE 23.0 mph 29.9 mph N/A   Mostly Cloudy
1:49 PM 44.6 °F 36.1 °F 25.3 °F 47% 29.91 in 10.0 mi SSE 21.9 mph 28.8 mph N/A   Scattered Clouds
2:09 PM 44.6 °F 37.4 °F 25.3 °F 47% 29.89 in 10.0 mi SSE 16.1 mph 27.6 mph N/A   Clear
2:29 PM 44.1 °F 35.7 °F 26.2 °F 50% 29.87 in 10.0 mi SSE 20.7 mph 28.8 mph N/A   Clear
2:49 PM 44.2 °F 36.2 °F 26.1 °F 49% 29.85 in 10.0 mi SSE 19.6 mph 26.5 mph N/A   Clear
3:09 PM 44.2 °F 36.7 °F 25.9 °F 49% 29.84 in 10.0 mi SE 17.3 mph 26.5 mph N/A   Scattered Clouds
3:28 PM 44.1 °F 36.5 °F 26.2 °F 50% 29.83 in 10.0 mi SE 17.3 mph - N/A   Scattered Clouds
3:49 PM 44.1 °F 36.5 °F 26.6 °F 50% 29.84 in 10.0 mi SSE 17.3 mph 24.2 mph N/A   Mostly Cloudy
4:08 PM 44.2 °F 35.9 °F 26.6 °F 50% 29.83 in 10.0 mi SSE 20.7 mph 28.8 mph N/A   Mostly Cloudy
4:29 PM 44.1 °F 36.8 °F 26.6 °F 50% 29.84 in 10.0 mi SSE 16.1 mph 20.7 mph N/A   Overcast
4:48 PM 43.9 °F 36.5 °F 27.1 °F 52% 29.83 in 10.0 mi SSE 16.1 mph 23.0 mph N/A   Overcast
5:09 PM 44.1 °F 37.1 °F 27.3 °F 52% 29.82 in 10.0 mi SSE 15.0 mph 25.3 mph N/A   Overcast
5:28 PM 43.9 °F 36.2 °F 27.5 °F 53% 29.82 in 10.0 mi SSE 17.3 mph 26.5 mph N/A   Overcast
5:49 PM 43.7 °F 36.9 °F 28.2 °F 54% 29.80 in 10.0 mi SSE 13.8 mph 23.0 mph N/A   Overcast
6:08 PM 43.9 °F 35.7 °F 28.6 °F 55% 29.79 in 10.0 mi SSE 19.6 mph 31.1 mph N/A   Overcast
6:29 PM 44.1 °F 35.4 °F 29.1 °F 56% 29.76 in 10.0 mi SSE 21.9 mph 29.9 mph N/A   Overcast
6:49 PM 44.1 °F 35.0 °F 29.3 °F 56% 29.77 in 10.0 mi SSE 24.2 mph 32.2 mph N/A   Mostly Cloudy
7:09 PM 43.9 °F 35.9 °F 30.2 °F 59% 29.77 in 10.0 mi SSE 18.4 mph 35.7 mph N/A   Mostly Cloudy
7:29 PM 43.7 °F 33.9 °F 30.6 °F 60% 29.75 in 10.0 mi South 27.6 mph 33.4 mph N/A   Overcast
7:49 PM 43.7 °F 34.5 °F 30.9 °F 61% 29.74 in 10.0 mi South 24.2 mph 34.5 mph N/A   Overcast
8:09 PM 43.7 °F 35.0 °F 31.5 °F 62% 29.73 in 10.0 mi South 21.9 mph 29.9 mph N/A   Overcast
8:29 PM 44.1 °F 34.8 °F 32.0 °F 63% 29.72 in 10.0 mi South 25.3 mph 35.7 mph N/A   Overcast
8:49 PM 43.2 °F 34.0 °F 32.0 °F 65% 29.72 in 10.0 mi South 23.0 mph 33.4 mph N/A   Overcast
9:09 PM 42.8 °F 33.8 °F 32.2 °F 66% 29.72 in 10.0 mi South 21.9 mph 27.6 mph N/A   Mostly Cloudy
9:29 PM 42.3 °F 33.8 °F 32.9 °F 69% 29.72 in 10.0 mi South 18.4 mph 25.3 mph N/A   Overcast
9:48 PM 41.9 °F 33.7 °F 34.2 °F 74% 29.72 in 10.0 mi SSW 17.3 mph 23.0 mph N/A   Overcast
10:09 PM 41.2 °F 32.7 °F 35.6 °F 81% 29.70 in 10.0 mi SSW 17.3 mph 20.7 mph N/A   Mostly Cloudy
10:26 PM 42.8 °F 35.8 °F 36.0 °F 77% 29.69 in 10.0 mi SSW 13.8 mph 20.7 mph N/A   Mostly Cloudy
10:49 PM 43.0 °F 35.4 °F 36.5 °F 78% 29.69 in 10.0 mi SSW 16.1 mph 19.6 mph N/A   Clear
11:09 PM 43.7 °F 38.1 °F 36.9 °F 77% 29.70 in 10.0 mi SW 10.4 mph 17.3 mph N/A   Scattered Clouds
11:29 PM 43.2 °F 37.0 °F 37.0 °F 79% 29.69 in 10.0 mi SSW 11.5 mph - N/A   Mostly Cloudy
11:49 PM 43.5 °F 38.3 °F 37.4 °F 79% 29.69 in 10.0 mi SW 9.2 mph - N/A   Overcast